Location: Plum
(40.5000°N, 79.7500°W)
Time: 04:56:46
(UTC-04:00)

Daily predictions for brighter satellites

Satellite Brightness Start Highest point End
(mag) Time Altitude Azimuth Time Altitude Azimuth Time Altitude Azimuth
Lacrosse 5 3.7 00:07:12 10° NW 00:09:43 29° NNW 00:09:43 29° NNW
Cosmos 1943 Rocket 3.8 00:33:23 10° NNW 00:36:08 30° NW 00:36:08 30° NW
Cosmos 2369 Rocket 4.5 01:05:38 10° NW 01:07:06 16° WNW 01:07:06 16° WNW
ADEOS Rocket 3.8 01:16:58 10° NNE 01:21:59 51° N 01:21:59 51° N
Mayak 1.8 01:33:05 10° NNW 01:33:35 13° NNW 01:33:35 13° NNW
Lacrosse 4 Rocket 4.3 02:03:10 10° N 02:05:06 16° NNE 02:05:06 16° NNE
Lacrosse 5 rocket 4.2 02:35:45 15° NE 02:35:45 15° NE 02:36:30 10° NE
CZ-2D R/B 3.5 02:43:15 10° NNE 02:47:19 33° ENE 02:47:19 33° ENE
SL-16 R/B 3.1 02:51:48 50° E 02:52:32 52° ENE 02:58:36 10° N
Cosmos 1980 Rocket 3.6 02:50:52 10° N 02:55:57 34° ENE 02:58:11 25° E
Cosmos 1697 Rocket 3.3 02:52:56 10° NNW 02:57:46 55° NNE 02:57:46 55° NNE
Cosmos 2082 Rocket 2.6 03:06:40 59° NNE 03:06:40 59° NNE 03:11:14 10° NNE
H-2A R/B 4.2 03:08:34 10° NNE 03:10:57 33° NNE 03:10:57 33° NNE
Nadezhda 4 Rocket 4.3 03:09:04 10° NNW 03:13:59 54° NW 03:13:59 54° NW
ATLAS 3B R/B 4.3 03:16:15 22° SE 03:18:15 25° ESE 03:23:43 10° ENE
Resurs 1-4 Rocket 2.3 03:18:53 10° NNE 03:23:32 67° NE 03:23:32 67° NE
Cosmos 1634 Rocket 3.9 03:24:53 80° SE 03:25:06 81° E 03:31:22 10° N
IRS-P3 4.4 03:29:04 10° N 03:33:41 59° NW 03:33:41 59° NW
NPP 4.0 03:29:57 10° N 03:34:34 54° NW 03:34:34 54° NW
SL-08 R/B 4.3 03:37:49 39° NNW 03:37:49 39° NNW 03:40:56 10° NNW
Cosmos 2279 Rocket 4.3 03:36:56 48° SE 03:38:28 62° E 03:44:38 10° NNE
Cosmos 1833 Rocket 3.3 03:41:36 43° NW 03:41:36 43° NW 03:46:43 10° NNE
Cosmos 1025 Rocket 4.2 03:42:56 37° NNW 03:42:56 37° NNW 03:45:37 10° N
USA 215 4.5 03:38:12 10° ENE 03:43:44 29° SE 03:45:35 25° SSE
Lacrosse 4 Rocket 4.0 03:40:49 10° NW 03:41:23 13° NW 03:41:23 13° NW
Cosmos 2208 Rocket 3.9 03:46:29 85° NNW 03:46:29 85° NNW 03:51:40 10° NNE
Cosmos 2026 Rocket 3.9 03:41:51 10° N 03:48:16 85° W 03:49:30 61° S
Cosmos 1898 Rocket 3.7 03:45:26 10° NNW 03:50:38 67° ENE 03:52:29 39° SE
Iridium 4 Rocket 4.4 04:00:48 30° NW 04:00:48 30° NW 04:03:30 10° NNW
BREEZE-M R/B 3.6 04:00:43 43° E 04:00:43 43° E 04:04:20 10° ENE
Cosmos 1570 Rocket 4.1 04:00:10 58° WNW 04:00:11 58° WNW 04:05:26 10° NNE
Cosmos 1937 Rocket 4.0 03:55:48 10° NNW 04:00:57 58° ENE 04:05:30 13° SSE
Cosmos 1766 3.6 04:01:21 10° N 04:04:57 62° ENE 04:04:57 62° ENE
Cosmos 2360 4.1 04:00:43 10° NNW 04:06:22 68° WSW 04:07:09 60° SSW
Cosmos 724 4.2 04:05:14 59° SSW 04:06:23 83° ESE 04:12:13 10° NNE
Timation 2 Rocket 4.1 04:07:41 40° S 04:09:46 64° ESE 04:15:40 10° NNE
Cosmos 1356 Rocket 4.0 04:10:57 44° NNW 04:10:57 44° NNW 04:14:04 10° N
Lacrosse 5 rocket 3.1 04:11:25 23° NW 04:11:47 23° NNW 04:15:08 10° NNE
Cosmos 468 Rocket 4.0 04:12:08 61° WSW 04:12:48 67° WNW 04:18:07 10° NNE
ARIANE 5 R/B 2.6 04:07:55 10° N 04:13:05 61° WNW 04:13:42 57° WSW
Spot 4 Rocket 4.1 04:08:48 10° N 04:13:51 58° WNW 04:14:22 55° W
Cosmos 990 Rocket 4.0 04:11:01 10° NNW 04:16:11 80° ENE 04:20:38 14° SSE
Cosmos 1066 Rocket 4.5 04:18:27 44° W 04:18:55 46° WNW 04:24:08 10° N
USA 238 DEB 3.8 04:17:41 37° SSW 04:20:35 74° ESE 04:27:31 10° NE
USA 238 3.8 04:17:45 37° SSW 04:20:41 73° ESE 04:27:37 10° NE
Cosmos 1814 Rocket 3.9 04:20:49 50° SSW 04:22:12 88° ESE 04:27:24 10° NNE
Cosmos 2266 Rocket 4.4 04:17:29 10° N 04:23:30 61° E 04:29:35 10° SSE
Cosmos 1655 Rocket 4.0 04:18:25 10° NNW 04:24:45 67° W 04:27:55 31° SSW
Cosmos 44 Rocket 4.5 04:20:17 10° NNW 04:25:14 47° NE 04:30:14 10° SE
Helios 1A Rocket 3.1 04:23:13 10° N 04:27:18 54° WNW 04:27:22 54° WNW
CZ-2D R/B 3.1 04:23:29 10° N 04:28:05 30° WNW 04:28:39 29° WNW
CZ-2D R/B 3.3 04:24:25 10° N 04:28:30 71° WNW 04:28:56 64° WSW
Cosmos 2150 Rocket 4.2 04:24:13 10° NNW 04:29:43 78° ENE 04:35:09 10° SSE
Cosmos 1726 Rocket 3.8 04:31:29 10° NNW 04:35:31 45° W 04:35:31 45° W
Meteor 1-21 4.1 04:33:26 33° SSW 04:36:07 81° W 04:41:47 10° N
SL-16 R/B 3.6 04:36:53 25° W 04:36:53 25° W 04:41:26 10° NW
Cosmos 2298 Rocket 3.9 04:31:34 10° NNW 04:36:55 82° WSW 04:42:12 10° SSE
Cosmos 2360 Rocket 4.1 04:32:27 10° N 04:37:25 31° ENE 04:42:23 10° ESE
Cosmos 1980 Rocket 2.8 04:34:54 10° NW 04:39:51 34° WSW 04:39:51 34° WSW
Meteor 2-11 Rocket 4.5 04:41:35 16° S 04:46:35 85° E 04:52:45 10° N
ADEOS II 2.0 04:43:42 10° NNE 04:48:59 83° WNW 04:52:21 23° SSW
Cosmos 2082 Rocket 4.1 04:48:31 13° WNW 04:50:26 15° NW 04:53:41 10° NNW
Cosmos 841 Rocket 3.4 04:48:23 32° SW 04:50:48 70° WNW 04:56:01 10° NNE
ADEOS 3.9 04:46:08 10° N 04:51:08 47° WNW 04:53:17 30° SW
Cosmos 1812 Rocket 4.5 04:48:17 10° N 04:52:39 51° E 04:56:59 10° SSE
SL-16 R/B 2.1 04:47:30 10° NNW 04:53:12 83° WSW 04:58:51 10° SSE
UNKNOWN OBJECT B 3.5 04:49:58 10° N 04:53:27 32° WNW 04:53:49 32° W
CZ-4B R/B 4.4 04:51:20 10° NNE 04:55:13 35° E 04:58:53 10° SSE
Cosmos 1602 Rocket 3.5 04:53:48 19° S 04:56:49 85° E 05:01:09 10° N
Cosmos 2058 Rocket 3.6 04:52:47 10° NNW 04:56:55 39° W 04:58:12 31° SW
NOSS 3-2 (C) 4.0 04:53:13 16° S 04:57:50 55° ESE 05:04:04 10° NE
Cosmos 1470 3.2 04:56:27 10° N 05:00:25 62° E 05:04:21 10° SSE
Cosmos 2228 3.7 04:57:03 10° NNW 05:00:49 31° W 05:01:28 30° WSW
Resurs 1-4 Rocket 3.9 05:00:37 10° NNW 05:03:19 14° WNW 05:04:38 13° WNW
Cosmos 540 Rocket 3.4 05:02:53 18° SSW 05:06:44 88° WNW 05:11:55 10° NNE
ATLAS 3B R/B 2.8 05:03:31 22° SW 05:08:26 67° NW 05:15:21 10° NNE
Cosmos 2322 Rocket 2.1 05:03:04 10° NNW 05:08:40 65° WSW 05:14:12 10° S
Cosmos 1626 Rocket 3.5 05:06:34 21° SSW 05:09:18 61° W 05:13:35 10° N
USA 161 4.4 05:09:43 10° SE 05:12:08 22° ENE 05:14:29 10° NNE
NOSS 3-2 (A) 3.4 05:10:13 19° SW 05:14:37 83° NW 05:21:10 10° NNE
Cosmos 1833 4.4 05:10:34 10° SSW 05:16:17 76° ESE 05:22:04 10° NNE
SJ 16-02 1.4 05:11:56 10° NNW 05:16:21 81° ENE 05:20:46 10° SSE
Cosmos 292 Rocket 4.1 05:13:38 21° SW 05:16:36 49° WNW 05:21:17 10° N
Cosmos 1707 2.8 05:13:21 10° S 05:17:12 80° E 05:21:07 10° N
Cosmos 1378 3.0 05:14:37 15° SSW 05:17:35 71° W 05:21:21 10° N
MOS 1-B 4.5 05:14:49 10° NNE 05:20:40 81° ESE 05:26:29 10° SSW
ATLAS CENTAUR R/B 2.9 05:18:00 10° NNW 05:22:14 44° NE 05:26:42 10° SE
USA 215 3.3 05:20:33 10° NE 05:27:06 76° NW 05:32:57 13° WSW
CENTAUR R/B 3.7 05:23:46 10° S 05:29:08 40° ESE 05:35:14 10° NE
Meteor 1-31 Rocket 3.8 05:30:11 10° NNE 05:33:56 46° E 05:37:38 10° S
CZ-4B R/B 4.1 05:28:38 10° NNE 05:34:04 51° E 05:39:21 10° S
Cosmos 1953 2.8 05:31:04 10° NNW 05:34:52 39° W 05:38:38 10° SSW
H-II Stage 2 4.4 05:30:23 12° SW 05:35:02 37° SSE 05:59:29 10° E
PSLV R/B 3.6 05:31:58 10° N 05:35:49 78° WNW 05:39:34 10° SSW
Cosmos 44 4.2 05:32:59 10° NW 05:37:32 30° WSW 05:42:11 10° S
Cosmos 1553 Rocket 4.3 05:32:54 10° S 05:39:17 75° E 05:45:41 10° N
CZ-3C R/B 3.8 05:37:58 10° SSE 05:39:24 11° SE 05:41:15 10° SE
Cosmos 1400 Rocket 4.3 05:36:19 10° SSE 05:39:57 39° E 05:43:40 10° NNE
IDEFIX/ARIANE 42P 4.3 05:40:24 10° NNE 05:45:10 35° E 05:49:55 10° SSE
Cosmos 1125 Rocket 3.5 05:40:14 10° NNW 05:45:30 64° WSW 05:50:42 10° S
Cosmos 2292 Rocket 3.6 05:43:33 10° N 05:47:09 58° E 05:50:09 10° SSE
Aureole 2 Rocket 2.7 05:44:39 10° NNW 05:48:21 51° WSW 05:51:47 10° S
Meteor 1-28 Rocket 3.2 05:46:05 10° SSE 05:49:49 88° ENE 05:53:36 10° N
Cosmos 2237 4.4 05:44:18 10° NNW 05:50:02 84° ENE 05:55:46 10° SSE
Cosmos 2322 3.8 05:45:21 10° NNW 05:51:06 89° ENE 05:56:50 10° SSE
PSLV R/B 3.2 05:49:55 11° WSW 05:52:39 56° SSE 05:55:37 10° E
Meteor PRIRODA 3.7 05:49:35 10° NNE 05:53:18 85° ESE 05:57:01 10° SSW
CZ-4B R/B 3.9 05:49:53 10° NNE 05:53:42 80° E 05:57:41 10° S
CZ-4B DEB 4.3 05:49:50 10° NNE 05:55:25 87° WNW 06:00:56 10° SSW
Cosmos-2242 3.8 05:51:29 10° N 05:55:43 57° E 05:59:54 10° SSE
Okean O Rocket 1.6 05:52:01 10° N 05:56:23 80° WNW 06:00:42 10° SSW
ERBS 2.3 05:55:43 10° SW 05:59:05 73° NW 06:02:29 10° NE
Cosmos 1825 Rocket 3.6 05:55:07 10° SSW 05:59:21 55° W 06:03:36 10° N
USA 267 4.0 05:54:44 10° ESE 06:01:07 57° NE 06:07:30 10° NW
Cosmos 44 Rocket 4.5 06:02:26 10° WNW 06:06:29 24° WSW 06:10:35 10° SSW
